When you browse on this site, cookies collect data to enhance your experience and personalize the content and advertising you see.
Visit our Privacy Policy to learn more. By continuing to use the site, you agree to this use of cookies and data.
  • In United Kingdom
  • List of Countries
  • For 7 days
  • Water Temperature
  • Satellite Maps
  • Weather Map
  • Weather Widgets
  • user-avatar
    Login

    Hourly Weather Aberaeron

    Today, 26 April, Friday

    Time Temperature Precipitation Wind Pressure Humidity
    00:00 +6°C° 0.2 mm 7 mps 742 mmHg 93%
    01:00 +5°C° 0 mm 7 mps 743 mmHg 93%
    02:00 +5°C° 0 mm 7 mps 743 mmHg 93%
    03:00 +5°C° 0 mm 7 mps 743 mmHg 93%
    04:00 +6°C° 0.2 mm 8 mps 743 mmHg 92%
    05:00 +6°C° 0.2 mm 8 mps 743 mmHg 91%
    06:00 +6°C° 0.2 mm 9 mps 743 mmHg 91%
    07:00 +6°C° 1.8 mm 9 mps 744 mmHg 92%
    08:00 +6°C° 1.8 mm 9 mps 744 mmHg 93%
    09:00 +6°C° 1.8 mm 9 mps 744 mmHg 95%
    10:00 +7°C° 0.4 mm 9 mps 745 mmHg 92%
    11:00 +7°C° 0.4 mm 9 mps 745 mmHg 90%
    12:00 +7°C° 0.4 mm 9 mps 746 mmHg 87%
    13:00 +7°C° 0 mm 9 mps 746 mmHg 84%
    14:00 +7°C° 0 mm 9 mps 746 mmHg 82%
    15:00 +7°C° 0 mm 9 mps 747 mmHg 79%
    16:00 +7°C° 0.4 mm 10 mps 746 mmHg 83%
    17:00 +6°C° 0.4 mm 11 mps 745 mmHg 88%
    18:00 +5°C° 0.4 mm 12 mps 745 mmHg 93%
    19:00 +5°C° 0.5 mm 12 mps 744 mmHg 90%
    20:00 +4°C° 0.5 mm 13 mps 743 mmHg 88%
    21:00 +4°C° 0.5 mm 14 mps 742 mmHg 86%
    22:00 +4°C° 0.8 mm 15 mps 742 mmHg 86%
    23:00 +2°C° 0.8 mm 17 mps 742 mmHg 87%

    Tomorrow, 27 April, Saturday

    Time Temperature Precipitation Wind Pressure Humidity
    00:00 +2°C° 0.8 mm 19 mps 742 mmHg 87%
    01:00 +2°C° 1.8 mm 18 mps 742 mmHg 87%
    02:00 +2°C° 1.8 mm 18 mps 743 mmHg 86%
    03:00 +2°C° 1.8 mm 18 mps 744 mmHg 85%
    04:00 +2°C° 0.6 mm 17 mps 745 mmHg 84%
    05:00 +1°C° 0.6 mm 16 mps 747 mmHg 82%
    06:00 +1°C° 0.6 mm 15 mps 748 mmHg 81%
    07:00 +3°C° 0.2 mm 14 mps 749 mmHg 79%
    08:00 +3°C° 0.2 mm 14 mps 750 mmHg 77%
    09:00 +4°C° 0.2 mm 13 mps 751 mmHg 75%
    10:00 +4°C° 0.3 mm 13 mps 751 mmHg 74%
    11:00 +4°C° 0.3 mm 12 mps 752 mmHg 74%
    12:00 +5°C° 0.3 mm 12 mps 752 mmHg 73%
    13:00 +5°C° 0.5 mm 12 mps 753 mmHg 74%
    14:00 +6°C° 0.5 mm 11 mps 753 mmHg 76%
    15:00 +6°C° 0.5 mm 11 mps 753 mmHg 77%
    16:00 +6°C° 0.4 mm 10 mps 754 mmHg 77%
    17:00 +6°C° 0.4 mm 10 mps 754 mmHg 78%
    18:00 +5°C° 0.4 mm 9 mps 754 mmHg 78%
    19:00 +5°C° 0.2 mm 9 mps 755 mmHg 79%
    20:00 +5°C° 0.2 mm 9 mps 756 mmHg 80%
    21:00 +3°C° 0.2 mm 9 mps 756 mmHg 81%
    22:00 +3°C° 0.1 mm 9 mps 756 mmHg 82%
    23:00 +3°C° 0.1 mm 9 mps 756 mmHg 82%

    Day after tomorrow, 28 April, Sunday

    Time Temperature Precipitation Wind Pressure Humidity
    00:00 +3°C° 0.1 mm 9 mps 756 mmHg 82%
    01:00 +4°C° 0 mm 8 mps 757 mmHg 83%
    02:00 +4°C° 0 mm 8 mps 757 mmHg 83%
    03:00 +4°C° 0 mm 8 mps 757 mmHg 83%
    04:00 +4°C° 0 mm 7 mps 757 mmHg 84%
    05:00 +4°C° 0 mm 6 mps 757 mmHg 86%
    06:00 +4°C° 0 mm 6 mps 757 mmHg 87%
    07:00 +6°C° 0.1 mm 5 mps 757 mmHg 87%
    08:00 +6°C° 0.1 mm 5 mps 757 mmHg 87%
    09:00 +7°C° 0.1 mm 4 mps 758 mmHg 87%
    10:00 +7°C° 0.2 mm 4 mps 758 mmHg 89%
    11:00 +8°C° 0.2 mm 3 mps 757 mmHg 91%
    12:00 +8°C° 0.2 mm 3 mps 757 mmHg 92%
    13:00 +8°C° 0.6 mm 2 mps 757 mmHg 93%
    14:00 +8°C° 0.6 mm 2 mps 757 mmHg 94%
    15:00 +8°C° 0.6 mm 2 mps 757 mmHg 94%
    16:00 +8°C° 0.7 mm 2 mps 757 mmHg 95%
    17:00 +9°C° 0.7 mm 1 mps 757 mmHg 96%
    18:00 +8°C° 0.7 mm 1 mps 757 mmHg 96%
    19:00 +8°C° 0.1 mm 1 mps 757 mmHg 96%
    20:00 +7°C° 0.1 mm 1 mps 757 mmHg 96%
    21:00 +7°C° 0.1 mm 1 mps 758 mmHg 96%
    22:00 +6°C° 0 mm 1 mps 757 mmHg 95%
    23:00 +6°C° 0 mm 1 mps 757 mmHg 94%

    29 April, Monday

    Time Temperature Precipitation Wind Pressure Humidity
    00:00 +6°C° 0 mm 1 mps 757 mmHg 93%
    01:00 +6°C° 0 mm 1 mps 757 mmHg 92%
    02:00 +5°C° 0 mm 2 mps 757 mmHg 92%
    03:00 +4°C° 0 mm 3 mps 756 mmHg 91%
    04:00 +4°C° 0 mm 3 mps 756 mmHg 92%
    05:00 +4°C° 0 mm 3 mps 756 mmHg 92%
    06:00 +4°C° 0 mm 3 mps 756 mmHg 93%
    07:00 +7°C° 0 mm 3 mps 756 mmHg 90%
    08:00 +8°C° 0 mm 4 mps 756 mmHg 86%
    09:00 +11°C° 0 mm 4 mps 756 mmHg 83%
    10:00 +11°C° 0.1 mm 4 mps 756 mmHg 80%
    11:00 +12°C° 0.1 mm 4 mps 756 mmHg 77%
    12:00 +12°C° 0.1 mm 5 mps 756 mmHg 74%
    13:00 +12°C° 0.2 mm 5 mps 755 mmHg 73%
    14:00 +12°C° 0.2 mm 4 mps 755 mmHg 72%
    15:00 +13°C° 0.2 mm 4 mps 755 mmHg 72%
    16:00 +12°C° 0.3 mm 4 mps 755 mmHg 76%
    17:00 +11°C° 0.3 mm 3 mps 755 mmHg 80%
    18:00 +11°C° 0.3 mm 3 mps 755 mmHg 85%
    19:00 +10°C° 0 mm 3 mps 755 mmHg 87%
    20:00 +8°C° 0 mm 4 mps 756 mmHg 90%
    21:00 +7°C° 0 mm 5 mps 756 mmHg 93%
    22:00 +7°C° 0 mm 5 mps 756 mmHg 92%
    23:00 +7°C° 0 mm 6 mps 756 mmHg 92%

    30 April, Tuesday

    Time Temperature Precipitation Wind Pressure Humidity
    00:00 +6°C° 0 mm 7 mps 756 mmHg 91%
    01:00 +5°C° 0 mm 7 mps 756 mmHg 92%
    02:00 +5°C° 0 mm 6 mps 756 mmHg 93%
    03:00 +5°C° 0 mm 6 mps 756 mmHg 94%
    04:00 +4°C° 0 mm 7 mps 756 mmHg 93%
    05:00 +4°C° 0 mm 7 mps 755 mmHg 92%
    06:00 +4°C° 0 mm 7 mps 755 mmHg 91%
    07:00 +6°C° 0 mm 7 mps 755 mmHg 87%
    08:00 +8°C° 0 mm 7 mps 755 mmHg 83%
    09:00 +10°C° 0 mm 7 mps 755 mmHg 78%
    10:00 +11°C° 0 mm 7 mps 755 mmHg 76%
    11:00 +11°C° 0 mm 7 mps 754 mmHg 74%
    12:00 +12°C° 0 mm 7 mps 754 mmHg 72%
    13:00 +12°C° 0.1 mm 7 mps 753 mmHg 74%
    14:00 +13°C° 0.1 mm 6 mps 753 mmHg 76%
    15:00 +13°C° 0.1 mm 5 mps 752 mmHg 78%
    16:00 +13°C° 0.2 mm 5 mps 752 mmHg 80%
    17:00 +12°C° 0.2 mm 5 mps 752 mmHg 81%
    18:00 +12°C° 0.2 mm 5 mps 751 mmHg 83%
    19:00 +10°C° 0.8 mm 5 mps 751 mmHg 86%
    20:00 +9°C° 0.8 mm 5 mps 751 mmHg 89%
    21:00 +8°C° 0.8 mm 5 mps 751 mmHg 92%
    22:00 +8°C° 1 mm 6 mps 751 mmHg 92%
    23:00 +8°C° 1 mm 7 mps 750 mmHg 92%

    1 May, Wednesday

    Time Temperature Precipitation Wind Pressure Humidity
    00:00 +7°C° 1 mm 9 mps 750 mmHg 93%
    01:00 +7°C° 0.9 mm 8 mps 750 mmHg 93%
    02:00 +7°C° 0.9 mm 8 mps 749 mmHg 94%
    03:00 +6°C° 0.9 mm 8 mps 749 mmHg 94%
    04:00 +6°C° 1.2 mm 7 mps 748 mmHg 94%
    05:00 +7°C° 1.2 mm 6 mps 748 mmHg 95%
    06:00 +7°C° 1.2 mm 6 mps 748 mmHg 95%
    07:00 +8°C° 0.3 mm 5 mps 748 mmHg 94%
    08:00 +8°C° 0.3 mm 4 mps 748 mmHg 93%
    09:00 +9°C° 0.3 mm 3 mps 748 mmHg 93%
    10:00 +10°C° 0.2 mm 2 mps 748 mmHg 90%
    11:00 +12°C° 0.2 mm 2 mps 748 mmHg 87%
    12:00 +13°C° 0.2 mm 2 mps 748 mmHg 84%
    13:00 +12°C° 0.5 mm 2 mps 748 mmHg 85%
    14:00 +12°C° 0.5 mm 1 mps 747 mmHg 85%
    15:00 +12°C° 0.5 mm 1 mps 747 mmHg 86%
    16:00 +12°C° 0.2 mm 2 mps 747 mmHg 86%
    17:00 +12°C° 0.2 mm 2 mps 747 mmHg 87%
    18:00 +10°C° 0.2 mm 3 mps 747 mmHg 87%
    19:00 +9°C° 0 mm 2 mps 747 mmHg 89%
    20:00 +8°C° 0 mm 2 mps 747 mmHg 91%
    21:00 +7°C° 0 mm 1 mps 747 mmHg 93%
    22:00 +7°C° 0 mm 1 mps 747 mmHg 93%
    23:00 +6°C° 0 mm 1 mps 747 mmHg 93%
    Show more